Regional Weather Roundup
Issued by NWS

Home | Current Version | Previous Version | Text Only | Print | Product List | Glossary On
Versions: 1 2 3 4 5 6 7 8 9 10 11 12 13 14 15 16 17 18 19 20 21 22 23 24 25 26 27 28 29 30 31 32 33 34 35 36 37 38 39 40 41 42 43 44 45 46 47 48 49 50
000
ASUS43 KMKX 282114
RWRWI

WISCONSIN REGIONAL WEATHER ROUNDUP
NATIONAL WEATHER SERVICE MILWAUKEE/SULLIVAN WI
400 PM CDT THU MAY 28 2015

NOTE: "FAIR" INDICATES FEW OR NO CLOUDS BELOW 12,000 FEET WITH NO
SIGNIFICANT WEATHER AND/OR OBSTRUCTIONS TO VISIBILITY.

WIZ001-002-006>008-014>016-023>028-282200-
NORTHWEST WISCONSIN

CITY           SKY/WX    TMP DP  RH WIND       PRES   REMARKS
SUPERIOR ARPT  CLOUDY    46  42  87 NE10      30.05F
ASHLAND        MOSUNNY   62  51  67 N10       30.02F
HAYWARD        MOSUNNY   84  47  27 SW20G30   30.01F HX  82
SIREN          MOSUNNY   84  49  29 SW16G28   29.99F HX  82
CUMBERLAND     PTSUNNY   77  54  44 S16       30.03S
RICE LAKE      MOSUNNY   84  48  28 S16G23    30.04S HX  82
CHETEK         PTSUNNY   82  58  42 S12G21    30.03F HX  82
LADYSMITH      MOSUNNY   82  51  34 S15       30.06S HX  81
EAU CLAIRE     PTSUNNY   83  55  38 S20G25    30.03F HX  82
MENOMONIE      MOSUNNY   81  56  42 S15       30.03F HX  81
NEW RICHMOND   SUNNY     80  50  34 S18G28    30.01F HX  80
OSCEOLA        MOSUNNY   82  52  35 S21       30.02F HX  81
$$

WIZ003>005-009-010-017-018-282200-
NORTH CENTRAL WISCONSIN

CITY           SKY/WX    TMP DP  RH WIND       PRES   REMARKS
MANITOWISH WTR PTSUNNY   78  54  43 SW14      30.04F
ARBOR VITAE    MOSUNNY   77  56  48 SW9       30.06S
WOODRUFF       MOSUNNY   77  56  48 SW9       30.06S
RHINELANDER    MOSUNNY   82  52  35 SW15G24   30.07F HX  81
EAGLE RIVER    MOSUNNY   81  44  27 SW9G16    30.06S
LAND O LAKES   MOSUNNY   82  49  31 S8        30.06S HX  80
PHILLIPS       SUNNY     81  53  38 S16G24    30.04F HX  80
TOMAHAWK       MOSUNNY   76  56  50 S10G21    30.09R
MEDFORD        MOSUNNY   79  58  48 S13       30.07F HX  80
MERRILL        CLOUDY    77  59  53 W10       30.09S
$$

WIZ029-030-035-036-043>047-282200-
CENTRAL WISCONSIN

CITY           SKY/WX    TMP DP  RH WIND       PRES   REMARKS
WAUSAU         MOSUNNY   82  50  32 S14G23    30.06F HX  81
MOSINEE        MOSUNNY   81  54  39 SW15      30.09F HX  80
MARSHFIELD     MOSUNNY   82  55  39 S14       30.08S HX  81
STEVENS POINT  MOSUNNY   82  53  37 S10G18    30.09S HX  81
WAUPACA        MOSUNNY   85  54  34 S14       30.10S HX  83
WAUTOMA        MOSUNNY   83  54  36 S16       30.10S HX  82
WISC RAPIDS    MOSUNNY   84  52  33 SW14G24   30.09F HX  82
CAMP DOUGLAS   PTSUNNY   82  59  44 S10       30.09S HX  82
$$

WIZ011>013-019>022-031-037>040-048>050-282200-
NORTHEAST WISCONSIN

CITY           SKY/WX    TMP DP  RH WIND       PRES   REMARKS
ANTIGO         MOSUNNY   76  60  57 S9        30.09F
SHAWANO        PTSUNNY   82  59  45 SW6       30.09S HX  82
OCONTO         MOSUNNY   77  64  62 SE8       30.09F
STURGEON BAY   MOSUNNY   73  61  64 S15       30.14F
GREEN BAY      MOSUNNY   83  60  45 S12       30.10F HX  83
MANITOWOC      SUNNY     71  58  63 S20G26    30.14F
APPLETON       PTSUNNY   81  55  41 S14G22    30.11F HX  80
CLINTONVILLE   PTSUNNY   82  55  39 S15       30.08F HX  82
OSHKOSH        MOSUNNY   80  60  50 S14       30.11F HX  81
$$

WIZ032>034-041-042-053>061-282200-
SOUTHWEST WISCONSIN

CITY           SKY/WX    TMP DP  RH WIND       PRES   REMARKS
LA CROSSE      PTSUNNY   85  55  35 S16G24    30.06F HX  83
SPARTA         PTSUNNY   82  50  32 SE15      30.09F HX  81
VIROQUA        PTSUNNY   80  52  38 S13G20    30.10F HX  80
BOSCOBEL       MOSUNNY   81  54  39 S10       30.10F HX  81
PRAIRIE DU CHI MOSUNNY   81  50  34 SE9       30.08F HX  80
PLATTEVILLE    MOSUNNY   81  52  36 S15       30.11F HX  80
$$

WIZ056-057-062-063-064-067-068-282200-
SOUTH CENTRAL WISCONSIN

CITY           SKY/WX    TMP DP  RH WIND       PRES   REMARKS
REEDSBURG      MOSUNNY   80  58  47 S12G17    30.11S HX  80
BARABOO/DELLS  MOSUNNY   79  53  40 S12G17    30.11F HX  80
LONE ROCK      MOSUNNY   80  55  42 S15G22    30.11F HX  80
MINERAL POINT  MOSUNNY   81  50  34 S14       30.12F HX  80
MADISON        PTSUNNY   82  54  37 S16       30.11F HX  81
MIDDLETON      MOSUNNY   83  49  29 S13       30.12F HX  81
WATERTOWN      MOSUNNY  N/A N/A N/A S8        30.12F
MONROE         MOSUNNY   81  54  39 S10G16    30.13F HX  80
JANESVILLE     MOSUNNY   82  50  32 SE10      30.12F HX  81
$$

WIZ051-052-058>065-066-070>072-282200-
SOUTHEAST WISCONSIN

CITY           SKY/WX    TMP DP  RH WIND       PRES   REMARKS
MILWAUKEE      PTSUNNY   76  57  51 SE13      30.15F
WAUKESHA       MOSUNNY   79  57  47 SE16      30.15F HX  80
MILWAUKEE/TIMM SUNNY     81  52  36 S13G18    30.15F HX  80
RACINE         MOSUNNY   75  55  49 S13       30.18F
BURLINGTON     MOSUNNY   78  55  45 SE12G18   30.15S
KENOSHA        SUNNY     78  54  43 SE14      30.16F
FOND DU LAC    MOSUNNY   82  60  47 S14G21    30.11F HX  82
SHEBOYGAN      SUNNY     75  58  55 S17G26    30.14S
WEST BEND      MOSUNNY   79  55  44 SE13      30.14S
JUNEAU         MOSUNNY   79  56  45 S12G21    30.14F HX  80
$$

LSZ147-162-282200-
LAKE SUPERIOR

STATION/POSITION TIME  TEMP    WIND        PRES    WAVE
                       AIR SEA DIR/SP/G            HT/PER
                 (UTC) (F)     (DEG/KT/KT) (MB)    (FT/S)
W MID LAKE BUOY  2050   38 37   30/ 16/ 17   N/A     3/ 4
DEVILS ISLAND    2100   40      80/ 11/ 13   N/A
PORT WING        2000   41      20/ 18/ 21   N/A
SAXON HARBOR     2040   46      10/  4/  6   N/A
$$

LMZ867-665-643>646-282200-
LAKE MICHIGAN

STATION/POSITION TIME  TEMP    WIND        PRES    WAVE
                       AIR SEA DIR/SP/G            HT/PER
                 (UTC) (F)     (DEG/KT/KT) (MB)    (FT/S)
CHAMBERS ISLAND  1900   58     330/  3/  4   N/A
N MID LAKE BUOY  2050   40 37  150/  6/  8   N/A     1
NORTHPORT PIER   2000   49     140/ 10/ 13   N/A
SISTER BAY       2003   77     140/ 12/ 16   N/A
ALGOMA LAKESHORE 2038          210/ 10/ 12   N/A
KEWAUNEE LAKESHO 2000   50     170/ 13/ 14   N/A
SHEBOYGAN LAKESH 2100   58     180/ 24/ 24   N/A
PORT WASHINGTON  2000   62     200/  5/ 10   N/A
ATWATER BUOY     2000   56     160/ 12/ 16   N/A
MILWAUKEE LAKESH 2000   56     140/ 16/ 18   N/A
S MID LAKE BUOY  2050   54 39  150/  2/  2   N/A     0
KENOSHA   LAKESH 2100   61     170/  5/  8   N/A
$$

TC  - TEMPERATURE IN CELSIUS
VSB - VISIBILITY IN STATUTE MILES
WCI - WIND CHILL INDEX
HX  - HEAT INDEX



USA.gov is the U.S. government's official web portal to all federal, state and local government web resources and services.